Location: Campbell Hill
(37.9301°N, 89.5490°W)
Time: 10:29:57
(UTC+00:00)

CZ-4C R/B - Pass Details

Date: 07 November 2025
Orbit: 487 x 1492 km, 63.4° (Epoch: 07 December)

Event Time Altitude Azimuth Distance (km) Brightness Sun altitude
Rises 23:46:50 0° 229° (SW) 2,632 6.0 -11.0°
Reaches altitude 10° 23:48:54 10° 236° (SW) 1,815 5.2 -11.4°
Maximum altitude 23:52:44 44° 309° (NW) 859 2.6 -12.2°
Drops below altitude 10° 23:57:30 10° 22° (NNE) 2,244 4.1 -13.1°
Enters shadow 23:59:13 - 27° (NNE) 2,911 4.6 -13.4°
